Location: Molino di Ancona
(43.6167°N, 13.3667°E)
Time: 22:48:00
(UTC+00:00)

Geosat - Pass Details

Date: 15 December 2019
Orbit: 763 x 766 km, 108.0° (Epoch: 22 January)

Event Time Altitude Azimuth Distance (km) Brightness Sun altitude
Rises 04:18:01 0° 143° (SE) 3,216 7.9 -23.4°
Reaches altitude 10° 04:20:18 10° 141° (SE) 2,294 7.1 -23.0°
Maximum altitude 04:25:15 67° 59° (ENE) 829 4.2 -22.1°
Enters shadow 04:28:14 24° 343° (NNW) 1,536 5.3 -21.6°
